ProjectID,Date,Electric Generation,Electric Utility Import,Facility Electric Load
,YYYY-MM-DD,kW,kW,kW
103,2012-12-01,0.0,,0.0
103,2012-12-02,0.0,,0.0
103,2012-12-03,0.0,,0.0
103,2012-12-04,0.0,,0.0
103,2012-12-05,232.85299999999998,341.6666666666667,574.5196666666667
103,2012-12-06,254.39691666666667,372.7083333333333,627.10525
103,2012-12-07,288.11841666666663,337.6666666666667,625.7850833333333
103,2012-12-08,287.9401666666667,328.6875,616.6276666666668
103,2012-12-09,288.56025,339.9375,628.49775
103,2012-12-10,225.89058333333332,381.8958333333333,607.7864166666666
103,2012-12-11,192.4505,427.6458333333333,620.0963333333333
103,2012-12-12,234.50670833333334,385.1875,619.6942083333333
103,2012-12-13,287.5464583333333,348.375,635.9214583333332
103,2012-12-14,260.0895,369.3958333333333,629.4853333333333
103,2012-12-15,288.96250000000003,349.6458333333333,638.6083333333333
103,2012-12-16,289.02454166666666,326.3333333333333,615.3578749999999
103,2012-12-17,231.67325000000002,361.6666666666667,593.3399166666667
103,2012-12-18,219.39975,369.125,588.52475
103,2012-12-19,269.279875,311.9791666666667,581.2590416666667
103,2012-12-20,283.37516666666664,319.0208333333333,602.396
103,2012-12-21,227.25383333333332,337.1041666666667,564.358
103,2012-12-22,288.6537083333333,222.85416666666666,511.507875
103,2012-12-23,288.28629166666667,216.08333333333334,504.36962500000004
103,2012-12-24,288.26979166666666,217.89583333333334,506.165625
103,2012-12-25,288.191,203.72916666666666,491.92016666666666
103,2012-12-26,288.72541666666666,207.35416666666666,496.0795833333333
103,2012-12-27,250.19929166666668,244.27083333333334,494.47012500000005
103,2012-12-28,108.88008333333333,344.72222222222223,453.6023055555556
103,2012-12-29,93.75791666666667,405.2083333333333,498.96625
103,2012-12-30,189.21620833333336,313.4791666666667,502.695375
103,2012-12-31,189.24245833333336,320.3333333333333,509.57579166666665
103,2013-01-01,189.266875,326.1875,515.454375
103,2013-01-02,189.18383333333335,402.5833333333333,591.7671666666666
103,2013-01-03,205.65345833333333,410.7916666666667,616.445125
103,2013-01-04,288.93491666666665,306.75,595.6849166666666
103,2013-01-05,280.66154166666666,310.3958333333333,591.057375
103,2013-01-06,270.75525,320.6875,591.4427499999999
103,2013-01-07,226.442625,372.2291666666667,598.6717916666666
103,2013-01-08,288.38958333333335,318.5416666666667,606.9312500000001
103,2013-01-09,256.75012499999997,353.1041666666667,609.8542916666667
103,2013-01-10,281.26570833333335,303.8125,585.0782083333334
103,2013-01-11,285.55354166666666,331.4375,616.9910416666667
103,2013-01-12,188.54795833333333,413.2083333333333,601.7562916666666
103,2013-01-13,188.43616666666665,404.1666666666667,592.6028333333334
103,2013-01-14,245.16804166666668,362.7291666666667,607.8972083333333
103,2013-01-15,256.86483333333337,374.3333333333333,631.1981666666667
103,2013-01-16,231.651125,385.8333333333333,617.4844583333334
103,2013-01-17,238.43516666666667,369.5208333333333,607.956
103,2013-01-18,247.83175000000003,353.0,600.83175
103,2013-01-19,287.04858333333334,314.4583333333333,601.5069166666667
103,2013-01-20,287.90504166666665,315.2291666666667,603.1342083333334
103,2013-01-21,288.10404166666666,318.9583333333333,607.062375
103,2013-01-22,234.20287499999998,401.5,635.702875
103,2013-01-23,235.11749999999998,403.9583333333333,639.0758333333333
103,2013-01-24,284.0258333333333,358.3125,642.3383333333334
103,2013-01-25,288.4972916666667,351.2291666666667,639.7264583333333
103,2013-01-26,283.3050416666667,330.6875,613.9925416666667
103,2013-01-27,288.7525416666667,315.4791666666667,604.2317083333334
103,2013-01-28,288.87920833333334,330.3958333333333,619.2750416666667
103,2013-01-29,286.12629166666665,352.3333333333333,638.459625
103,2013-01-30,284.5011666666667,360.9166666666667,645.4178333333334
103,2013-01-31,241.06504166666664,391.5833333333333,632.648375
103,2013-02-01,96.40508333333334,507.1875,603.5925833333333
103,2013-02-02,92.80341666666668,519.7291666666666,612.5325833333333
103,2013-02-03,92.88687499999999,511.25,604.136875
103,2013-02-04,135.82266666666666,473.9791666666667,609.8018333333333
103,2013-02-05,90.69529166666666,532.8333333333334,623.528625
103,2013-02-06,139.99470833333334,492.3958333333333,632.3905416666666
103,2013-02-07,249.238375,381.8125,631.050875
103,2013-02-08,265.6044583333333,347.1458333333333,612.7502916666666
103,2013-02-09,288.255,327.1041666666667,615.3591666666666
103,2013-02-10,279.70341666666667,327.9791666666667,607.6825833333334
103,2013-02-11,257.11079166666667,303.9782608695652,561.0890525362319
103,2013-02-12,243.66279166666666,347.3125,590.9752916666666
103,2013-02-13,280.9879583333333,321.6875,602.6754583333334
103,2013-02-14,261.5477916666667,331.5625,593.1102916666666
103,2013-02-15,201.0834583333333,395.875,596.9584583333333
103,2013-02-16,192.50691666666668,423.1875,615.6944166666667
103,2013-02-17,192.54695833333335,428.5833333333333,621.1302916666666
103,2013-02-18,192.7747916666667,418.3333333333333,611.108125
103,2013-02-19,248.55870833333333,374.0416666666667,622.600375
103,2013-02-20,262.08983333333333,366.2291666666667,628.319
103,2013-02-21,234.923125,404.1666666666667,639.0897916666667
103,2013-02-22,287.9778333333333,338.0208333333333,625.9986666666666
103,2013-02-23,271.41529166666663,340.4375,611.8527916666667
103,2013-02-24,187.78620833333332,425.4791666666667,613.265375
103,2013-02-25,214.52345833333334,402.4791666666667,617.0026250000001
103,2013-02-26,250.036125,383.9791666666667,634.0152916666667
103,2013-02-27,251.0052916666667,385.9791666666667,636.9844583333334
103,2013-02-28,191.54425,418.8958333333333,610.4400833333333
103,2013-03-01,229.1353333333333,387.4375,616.5728333333333
103,2013-03-02,287.08454166666667,330.7083333333333,617.792875
103,2013-03-03,266.7319166666667,337.2916666666667,604.0235833333334
103,2013-03-04,216.36720833333334,381.3125,597.6797083333333
103,2013-03-05,289.52866666666665,321.9791666666667,611.5078333333333
103,2013-03-06,278.84091666666666,332.4166666666667,611.2575833333333
103,2013-03-07,288.2527083333333,329.1041666666667,617.356875
103,2013-03-08,289.2943333333333,331.875,621.1693333333333
103,2013-03-09,252.76966666666667,359.3125,612.0821666666667
103,2013-03-10,189.94108333333335,395.5416666666667,585.48275
103,2013-03-11,198.30741666666665,408.0625,606.3699166666667
103,2013-03-12,187.49225,431.875,619.36725
103,2013-03-13,267.01050000000004,348.4583333333333,615.4688333333334
103,2013-03-14,291.640125,330.375,622.015125
103,2013-03-15,291.62370833333335,308.4791666666667,600.102875
103,2013-03-16,212.4165,377.4583333333333,589.8748333333333
103,2013-03-17,192.41287499999999,405.0833333333333,597.4962083333332
103,2013-03-18,247.73666666666668,356.0833333333333,603.8199999999999
103,2013-03-19,287.3829583333333,324.3541666666667,611.737125
103,2013-03-20,207.8708333333333,346.5681818181818,554.4390151515152
103,2013-03-21,185.63508333333334,435.0208333333333,620.6559166666666
103,2013-03-22,222.89316666666664,376.9583333333333,599.8515
103,2013-03-23,168.574375,443.4166666666667,611.9910416666667
103,2013-03-24,81.13795833333333,523.5625,604.7004583333334
103,2013-03-25,236.14566666666667,374.3958333333333,610.5415
103,2013-03-26,227.948,388.5416666666667,616.4896666666667
103,2013-03-27,226.79945833333332,383.8333333333333,610.6327916666667
103,2013-03-28,127.1395,496.4375,623.577
103,2013-03-29,64.959875,540.5833333333334,605.5432083333334
103,2013-03-30,62.86204166666667,532.75,595.6120416666666
103,2013-03-31,64.29416666666667,525.8125,590.1066666666667
103,2013-04-01,100.588625,515.75,616.338625
103,2013-04-02,252.16558333333333,393.5,645.6655833333333
103,2013-04-03,239.41508333333334,387.7916666666667,627.20675
103,2013-04-04,231.73583333333332,361.7916666666667,593.5275
103,2013-04-05,135.02970833333333,476.7916666666667,611.821375
103,2013-04-06,134.409,495.8333333333333,630.2423333333334
103,2013-04-07,75.01541666666667,525.0208333333334,600.03625
103,2013-04-08,66.32595833333333,626.7083333333334,693.0342916666667
103,2013-04-09,42.688625,705.5,748.188625
103,2013-04-10,38.13283333333333,699.4375,737.5703333333333
103,2013-04-11,38.063833333333335,709.4791666666666,747.543
103,2013-04-12,145.345,498.7916666666667,644.1366666666667
103,2013-04-13,132.44908333333333,504.0,636.4490833333333
103,2013-04-14,64.99516666666666,550.9583333333334,615.9535000000001
103,2013-04-15,56.799416666666666,569.8541666666666,626.6535833333332
103,2013-04-16,75.12354166666667,546.0833333333334,621.2068750000001
103,2013-04-17,63.45979166666667,633.0416666666666,696.5014583333333
103,2013-04-18,151.634125,477.375,629.009125
103,2013-04-19,52.222541666666665,569.8125,622.0350416666666
103,2013-04-20,3.4115,571.8958333333334,575.3073333333334
103,2013-04-21,2.482666666666667,485.1041666666667,487.58683333333335
103,2013-04-22,46.725625,439.1875,485.913125
103,2013-04-23,177.436375,472.2291666666667,649.6655416666667
103,2013-04-24,172.68470833333333,492.0,664.6847083333333
103,2013-04-25,124.31370833333334,552.7708333333334,677.0845416666667
103,2013-04-26,161.20175,535.6666666666666,696.8684166666667
103,2013-04-27,106.32966666666665,597.9583333333334,704.288
103,2013-04-28,118.619625,568.0833333333334,686.7029583333334
103,2013-04-29,104.14091666666667,613.125,717.2659166666667
103,2013-04-30,115.98312499999999,588.25,704.233125
103,2013-05-01,157.85404166666666,567.1875,725.0415416666667
103,2013-05-02,171.60791666666668,527.8958333333334,699.5037500000001
103,2013-05-03,184.98329166666667,508.4166666666667,693.3999583333334
103,2013-05-04,191.28791666666666,503.2083333333333,694.4962499999999
103,2013-05-05,205.26833333333332,494.0833333333333,699.3516666666667
103,2013-05-06,184.04454166666667,530.9583333333334,715.002875
103,2013-05-07,117.491875,627.5416666666666,745.0335416666667
103,2013-05-08,115.29979166666668,558.7291666666666,674.0289583333333
103,2013-05-09,120.305625,488.8333333333333,609.1389583333333
103,2013-05-10,87.72954166666666,520.03125,607.7607916666667
103,2013-05-11,0.0,,0.0
103,2013-05-12,0.0,,0.0
103,2013-05-13,10.135416666666666,126.5,136.63541666666666
103,2013-05-14,0.0,,0.0
103,2013-05-15,0.0,,0.0
103,2013-05-16,0.0,,0.0
103,2013-05-17,0.0,,0.0
103,2013-05-18,0.0,,0.0
103,2013-05-19,0.0,,0.0
103,2013-05-20,0.0,,0.0
103,2013-05-21,0.0,,0.0
103,2013-05-22,0.0,,0.0
103,2013-05-23,0.0,,0.0
103,2013-05-24,0.0,,0.0
103,2013-05-25,0.0,,0.0
103,2013-05-26,0.0,,0.0
103,2013-05-27,0.0,,0.0
103,2013-05-28,0.0,,0.0
103,2013-05-29,0.0,,0.0
103,2013-05-30,0.0,,0.0
103,2013-05-31,0.0,,0.0
103,2013-06-01,0.0,0.0,0.0
103,2013-06-02,0.0,0.0,0.0
103,2013-06-03,0.0,0.0,0.0
103,2013-06-04,0.0,0.0,0.0
103,2013-06-05,0.0,0.0,0.0
103,2013-06-06,0.0,0.0,0.0
103,2013-06-07,0.0,0.0,0.0
103,2013-06-08,0.0,0.0,0.0
103,2013-06-09,0.0,0.0,0.0
103,2013-06-10,0.0,0.0,0.0
103,2013-06-11,0.0,0.0,0.0
103,2013-06-12,0.0,0.0,0.0
103,2013-06-13,0.0,0.0,0.0
103,2013-06-14,0.0,0.0,0.0
103,2013-06-15,0.0,0.0,0.0
103,2013-06-16,0.0,0.0,0.0
103,2013-06-17,0.0,0.0,0.0
103,2013-06-18,0.0,0.0,0.0
103,2013-06-19,0.0,0.0,0.0
103,2013-06-20,0.0,0.0,0.0
103,2013-06-21,0.0,0.0,0.0
103,2013-06-22,0.0,0.0,0.0
103,2013-06-23,0.0,0.0,0.0
103,2013-06-24,0.0,0.0,0.0
103,2013-06-25,0.0,0.0,0.0
103,2013-06-26,0.0,0.0,0.0
103,2013-06-27,0.0,0.0,0.0
103,2013-06-28,0.0,0.0,0.0
103,2013-06-29,0.0,0.0,0.0
103,2013-06-30,0.0,0.0,0.0
103,2013-07-01,0.0,0.0,0.0
103,2013-07-02,0.0,0.0,0.0
103,2013-07-03,0.0,0.0,0.0
103,2013-07-04,0.0,0.0,0.0
103,2013-07-05,0.0,0.0,0.0
103,2013-07-06,0.0,0.0,0.0
103,2013-07-07,0.0,0.0,0.0
103,2013-07-08,0.0,0.0,0.0
103,2013-07-09,0.0,0.0,0.0
103,2013-07-10,0.0,0.0,0.0
103,2013-07-11,0.0,0.0,0.0
103,2013-07-12,0.0,0.0,0.0
103,2013-07-13,0.0,0.0,0.0
103,2013-07-14,0.0,0.0,0.0
103,2013-07-15,0.0,0.0,0.0
103,2013-07-16,0.0,0.0,0.0
103,2013-07-17,0.0,0.0,0.0
103,2013-07-18,0.0,0.0,0.0
103,2013-07-19,0.0,0.0,0.0
103,2013-07-20,0.0,0.0,0.0
103,2013-07-21,0.0,0.0,0.0
103,2013-07-22,0.0,0.0,0.0
103,2013-07-23,0.0,0.0,0.0
103,2013-07-24,0.0,0.0,0.0
103,2013-07-25,0.0,0.0,0.0
103,2013-07-26,0.0,0.0,0.0
103,2013-07-27,0.0,0.0,0.0
103,2013-07-28,0.0,0.0,0.0
103,2013-07-29,0.0,0.0,0.0
103,2013-07-30,0.0,0.0,0.0
103,2013-07-31,72.53170833333333,0.0,72.53170833333333
103,2013-08-01,97.003625,0.0,97.003625
103,2013-08-02,84.61716666666666,0.0,84.61716666666666
103,2013-08-03,118.699875,0.0,118.699875
103,2013-08-04,96.70325000000001,0.0,96.70325000000001
103,2013-08-05,89.83554166666666,0.0,89.83554166666666
103,2013-08-06,95.69675000000001,0.0,95.69675000000001
103,2013-08-07,99.78116666666666,0.0,99.78116666666666
103,2013-08-08,89.32816666666668,0.0,89.32816666666668
103,2013-08-09,103.223875,0.0,103.223875
103,2013-08-10,77.66395833333333,0.0,77.66395833333333
103,2013-08-11,83.96866666666666,0.0,83.96866666666666
103,2013-08-12,110.41429166666667,0.0,110.41429166666667
103,2013-08-13,110.30679166666665,0.0,110.30679166666665
103,2013-08-14,103.6735,0.0,103.6735
103,2013-08-15,112.86174999999999,0.0,112.86174999999999
103,2013-08-16,122.29424999999999,0.0,122.29424999999999
103,2013-08-17,115.206,0.0,115.206
103,2013-08-18,112.4805,0.0,112.4805
103,2013-08-19,81.57925,0.0,81.57925
103,2013-08-20,87.48804166666667,0.0,87.48804166666667
103,2013-08-21,80.64725,0.0,80.64725
103,2013-08-22,80.69687499999999,0.0,80.69687499999999
103,2013-08-23,84.10141666666667,0.0,84.10141666666667
103,2013-08-24,46.763625,0.0,46.763625
103,2013-08-25,-2.932541666666667,0.0,-2.932541666666667
103,2013-08-26,87.51825000000001,0.0,87.51825000000001
103,2013-08-27,95.78529166666668,0.0,95.78529166666668
103,2013-08-28,95.59862500000001,0.0,95.59862500000001
103,2013-08-29,92.18404166666666,0.0,92.18404166666666
103,2013-08-30,93.53508333333333,0.0,93.53508333333333
103,2013-08-31,94.82404166666667,0.0,94.82404166666667
103,2013-09-01,95.846,0.0,95.846
103,2013-09-02,89.77079166666665,0.0,89.77079166666665
103,2013-09-03,106.22829166666666,0.0,106.22829166666666
103,2013-09-04,98.80754166666667,0.0,98.80754166666667
103,2013-09-05,96.70437500000001,0.0,96.70437500000001
103,2013-09-06,130.08983333333333,0.0,130.08983333333333
103,2013-09-07,114.822875,0.0,114.822875
103,2013-09-08,107.47675,0.0,107.47675
103,2013-09-09,126.34625,0.0,126.34625
103,2013-09-10,115.54329166666668,0.0,115.54329166666668
103,2013-09-11,88.61833333333334,0.0,88.61833333333334
103,2013-09-12,69.14783333333334,0.0,69.14783333333334
103,2013-09-13,103.39637499999999,0.0,103.39637499999999
103,2013-09-14,123.87379166666666,0.0,123.87379166666666
103,2013-09-15,108.95679166666667,0.0,108.95679166666667
103,2013-09-16,128.92579166666667,0.0,128.92579166666667
103,2013-09-17,129.50508333333332,0.0,129.50508333333332
103,2013-09-18,93.73441666666668,0.0,93.73441666666668
103,2013-09-19,118.24366666666667,0.0,118.24366666666667
103,2013-09-20,111.62120833333334,0.0,111.62120833333334
103,2013-09-21,106.52187500000001,0.0,106.52187500000001
103,2013-09-22,106.01479166666667,0.0,106.01479166666667
103,2013-09-23,125.66770833333334,0.0,125.66770833333334
103,2013-09-24,120.80079166666667,0.0,120.80079166666667
103,2013-09-25,115.76070833333334,0.0,115.76070833333334
103,2013-09-26,110.15991666666667,0.0,110.15991666666667
103,2013-09-27,102.791875,0.0,102.791875
103,2013-09-28,101.05858333333333,0.0,101.05858333333333
103,2013-09-29,97.915375,0.0,97.915375
103,2013-09-30,112.11220833333334,0.0,112.11220833333334
103,2013-10-01,109.484375,0.0,109.484375
103,2013-10-02,86.91158333333334,0.0,86.91158333333334
103,2013-10-03,80.95295833333334,0.0,80.95295833333334
103,2013-10-04,100.04345833333333,0.0,100.04345833333333
103,2013-10-05,86.00766666666668,0.0,86.00766666666668
103,2013-10-06,99.39666666666666,0.0,99.39666666666666
103,2013-10-07,104.89479166666666,0.0,104.89479166666666
103,2013-10-08,135.87641666666667,0.0,135.87641666666667
103,2013-10-09,129.29683333333332,0.0,129.29683333333332
103,2013-10-10,124.90004166666667,0.0,124.90004166666667
103,2013-10-11,117.6715,0.0,117.6715
103,2013-10-12,103.44545833333332,0.0,103.44545833333332
103,2013-10-13,110.39845833333334,0.0,110.39845833333334
103,2013-10-14,125.79045833333333,0.0,125.79045833333333
103,2013-10-15,123.246,0.0,123.246
103,2013-10-16,114.27483333333333,0.0,114.27483333333333
103,2013-10-17,121.63908333333335,0.0,121.63908333333335
103,2013-10-18,110.40279166666666,0.0,110.40279166666666
103,2013-10-19,127.96979166666667,0.0,127.96979166666667
103,2013-10-20,133.49229166666666,0.0,133.49229166666666
103,2013-10-21,119.92854166666666,0.0,119.92854166666666
103,2013-10-22,121.33991666666667,0.0,121.33991666666667
103,2013-10-23,110.66241666666667,0.0,110.66241666666667
103,2013-10-24,116.78941666666667,0.0,116.78941666666667
103,2013-10-25,110.58300000000001,0.0,110.58300000000001
103,2013-10-26,113.19520833333333,0.0,113.19520833333333
103,2013-10-27,120.83608333333332,0.0,120.83608333333332
103,2013-10-28,115.83216666666668,0.0,115.83216666666668
103,2013-10-29,139.10916666666665,0.0,139.10916666666665
103,2013-10-30,140.19054166666666,0.0,140.19054166666666
103,2013-10-31,113.972375,0.0,113.972375
103,2013-11-01,103.5575,,103.5575
103,2013-11-02,130.90754166666667,,130.90754166666667
103,2013-11-03,142.64975,,142.64975
103,2013-11-04,145.43366666666665,,145.43366666666665
103,2013-11-05,118.80620833333334,,118.80620833333334
103,2013-11-06,121.35683333333333,366.7142857142857,488.07111904761905
103,2013-11-07,128.24504166666665,410.9583333333333,539.2033749999999
103,2013-11-08,148.366875,342.875,491.241875
103,2013-11-09,155.31516666666667,343.25,498.56516666666664
103,2013-11-10,115.17462499999999,398.4583333333333,513.6329583333334
103,2013-11-11,138.12675,367.7916666666667,505.91841666666664
103,2013-11-12,147.61054166666665,370.9583333333333,518.5688749999999
103,2013-11-13,129.29316666666668,366.0833333333333,495.37649999999996
103,2013-11-14,150.898125,339.7083333333333,490.6064583333333
103,2013-11-15,168.3925,311.4583333333333,479.8508333333333
103,2013-11-16,149.95004166666666,343.75,493.70004166666666
103,2013-11-17,134.25925,343.5833333333333,477.8425833333333
103,2013-11-18,121.03808333333335,357.875,478.91308333333336
103,2013-11-19,146.74716666666666,344.75,491.49716666666666
103,2013-11-20,163.811625,327.875,491.686625
103,2013-11-21,148.777375,346.0,494.777375
103,2013-11-22,131.53504166666667,355.25,486.78504166666664
103,2013-11-23,152.16529166666666,334.6666666666667,486.8319583333333
103,2013-11-24,59.35933333333333,410.75,470.1093333333333
103,2013-11-25,65.66304166666667,402.2083333333333,467.871375
103,2013-11-26,101.89183333333334,376.5416666666667,478.43350000000004
103,2013-11-27,88.74987499999999,384.7916666666667,473.54154166666666
103,2013-11-28,124.1225,385.5,509.6225
103,2013-11-29,111.24341666666668,389.875,501.1184166666667
103,2013-11-30,116.44808333333333,382.875,499.32308333333333
103,2013-12-01,95.584625,375.2916666666667,470.8762916666667
103,2013-12-02,104.26929166666667,371.75,476.0192916666667
103,2013-12-03,105.17462499999999,387.625,492.799625
103,2013-12-04,89.36325,403.6666666666667,493.0299166666667
103,2013-12-05,91.660375,403.0,494.660375
103,2013-12-06,107.19366666666667,381.9583333333333,489.152
103,2013-12-07,116.198125,380.8333333333333,497.0314583333333
103,2013-12-08,114.23575,383.125,497.36075
103,2013-12-09,104.09879166666667,396.4583333333333,500.557125
103,2013-12-10,117.44791666666667,393.9583333333333,511.40625
103,2013-12-11,134.21483333333333,385.2083333333333,519.4231666666667
103,2013-12-12,128.55375,390.75,519.30375
103,2013-12-13,136.37495833333332,387.375,523.7499583333333
103,2013-12-14,169.111875,360.2083333333333,529.3202083333333
103,2013-12-15,159.84270833333332,336.0416666666667,495.884375
103,2013-12-16,170.59645833333335,323.75,494.3464583333333
103,2013-12-17,164.24183333333335,333.0416666666667,497.2835
103,2013-12-18,93.20208333333333,378.625,471.82708333333335
103,2013-12-19,116.176,357.6666666666667,473.8426666666667
103,2013-12-20,156.22120833333335,314.75,470.9712083333334
103,2013-12-21,133.89329166666667,340.0833333333333,473.976625
103,2013-12-22,71.09754166666666,376.5416666666667,447.63920833333333
103,2013-12-23,53.989916666666666,354.2916666666667,408.28158333333334
103,2013-12-24,142.44,281.3333333333333,423.7733333333333
103,2013-12-25,186.68904166666667,244.83333333333334,431.522375
103,2013-12-26,186.03375000000003,249.125,435.15875000000005
103,2013-12-27,186.71212500000001,247.91666666666666,434.62879166666664
103,2013-12-28,181.77241666666666,242.70833333333334,424.48075
103,2013-12-29,170.40608333333333,249.20833333333334,419.61441666666667
103,2013-12-30,184.5365833333333,246.83333333333334,431.36991666666665
103,2013-12-31,186.58825000000002,245.875,432.46325
103,2014-01-01,185.90004166666665,238.75,424.65004166666665
103,2014-01-02,161.46729166666668,317.375,478.8422916666667
103,2014-01-03,187.59645833333332,324.7083333333333,512.3047916666667
103,2014-01-04,187.61979166666666,316.875,504.49479166666663
103,2014-01-05,183.21529166666667,313.625,496.84029166666664
103,2014-01-06,157.70054166666668,318.125,475.8255416666667
103,2014-01-07,187.66516666666666,320.9583333333333,508.6235
103,2014-01-08,210.89316666666664,345.1666666666667,556.0598333333334
103,2014-01-09,240.6055,302.75,543.3555
103,2014-01-10,262.33479166666666,260.375,522.7097916666667
103,2014-01-11,136.74758333333332,362.7916666666667,499.53925000000004
103,2014-01-12,211.94141666666667,322.9166666666667,534.8580833333333
103,2014-01-13,229.32266666666666,293.9166666666667,523.2393333333333
103,2014-01-14,226.92966666666666,298.5,525.4296666666667
103,2014-01-15,240.779,293.7083333333333,534.4873333333333
103,2014-01-16,247.54545833333336,287.75,535.2954583333334
103,2014-01-17,245.32150000000001,271.6666666666667,516.9881666666668
103,2014-01-18,187.53020833333335,322.125,509.65520833333335
103,2014-01-19,187.55066666666667,329.75,517.3006666666666
103,2014-01-20,187.27120833333333,318.5833333333333,505.85454166666665
103,2014-01-21,187.75483333333332,333.875,521.6298333333333
103,2014-01-22,188.16170833333334,346.1666666666667,534.328375
103,2014-01-23,188.14966666666666,352.4166666666667,540.5663333333333
103,2014-01-24,218.89879166666665,317.5833333333333,536.482125
103,2014-01-25,232.65745833333335,307.4166666666667,540.0741250000001
103,2014-01-26,234.622625,285.7083333333333,520.3309583333333
103,2014-01-27,236.77616666666665,287.125,523.9011666666667
103,2014-01-28,269.82266666666663,293.5416666666667,563.3643333333333
103,2014-01-29,249.02220833333334,298.6666666666667,547.688875
103,2014-01-30,268.350125,295.625,563.9751249999999
103,2014-01-31,214.16933333333336,329.375,543.5443333333334
103,2014-02-01,234.83075,294.5416666666667,529.3724166666667
103,2014-02-02,192.198,308.875,501.073
103,2014-02-03,243.38941666666665,273.2083333333333,516.5977499999999
103,2014-02-04,234.99741666666668,300.4583333333333,535.45575
103,2014-02-05,176.1040416666667,341.9583333333333,518.062375
103,2014-02-06,196.991125,318.1666666666667,515.1577916666668
103,2014-02-07,186.32658333333333,323.4583333333333,509.7849166666666
103,2014-02-08,186.46225,312.9583333333333,499.4205833333333
103,2014-02-09,186.3845,301.2083333333333,487.5928333333333
103,2014-02-10,173.71475,330.4166666666667,504.1314166666667
103,2014-02-11,71.69562499999999,418.6666666666667,490.3622916666667
103,2014-02-12,104.70825,400.3333333333333,505.04158333333334
103,2014-02-13,152.615875,342.9583333333333,495.57420833333333
103,2014-02-14,131.933875,356.375,488.308875